Toronto Pearson, Ontario

11:52 PM EST on November 18, 2019 (GMT -0500)
Toronto-Pearson International

Weather History for CYYZ - June, 2019

Change the Weather History Date:

Wednesday, June 12, 2019

  Actual Average Record
Temperature  
Mean Temperature 60 °F -  
Max Temperature 70 °F 76 °F 91 °F (2017)
Min Temperature 50 °F 54 °F 46 °F (2004)
Degree Days  
Heating Degree Days 5    
Growing Degree Days 10 (Base 50)    
Moisture  
Dew Point 44 °F    
Average Humidity 49    
Maximum Humidity 71    
Minimum Humidity 26    
Precipitation  
Precipitation 0.00 in 0.09 in - ()
Sea Level Pressure  
Sea Level Pressure 30.05 in    
Wind  
Wind Speed 7 mph ()    
Max Wind Speed 15 mph    
Max Gust Speed 26 mph    
Visibility 15.0 miles    
Events      
Averages and records for this station are not official NWS values.
T = Trace of Precipitation, MM = Missing Value Source: Averaged Metar Reports

Daily Weather History Graph

Daily Weather History Graph

Search for Another Location

Airport or City:

Astronomy

Jun. 12, 2019 Rise Set
Actual Time 5:36 AM EDT 9:00 PM EDT
Civil Twilight 5:00 AM EDT 9:36 PM EDT
Nautical Twilight 4:13 AM EDT 10:23 PM EDT
Astronomical Twilight 3:15 AM EDT 11:21 PM EDT
Moon 3:55 PM EDT (6/12) 3:01 AM EDT (6/12)
Length of Visible Light 16h 35m
Length of Day
15h 24m
Waxing Gibbous, 76% of the Moon is Illuminated
Jun 12
Waxing Gibbous
Jun 17
Full
Jun 25
Last Quarter
Jul 2
New
Jul 9
First Quarter

Hourly Weather History & Observations

Time (EDT) Temp. Dew Point Humidity Pressure Visibility Wind Dir Wind Speed Gust Speed Precip Events Conditions
12:00 AM 57.2 °F 39.2 °F 51% 30.13 in 15.0 mi South 6.9 mph - N/A   Clear
1:00 AM 55.4 °F 41.0 °F 58% 30.13 in 15.0 mi Variable 2.3 mph - N/A   Partly Cloudy
2:00 AM 56 °F 42 °F 50% 30.14 in 15 mi North 1.2 mph - -   Clear
2:00 AM 57.2 °F 42.8 °F 59% 30.13 in 15.0 mi Variable 2.3 mph - N/A   Partly Cloudy
3:00 AM 55.4 °F 42.8 °F 63% 30.12 in 15.0 mi East 9.2 mph - N/A   Partly Cloudy
4:00 AM 51.8 °F 42.8 °F 71% 30.13 in 15.0 mi Variable 2.3 mph - N/A   Partly Cloudy
5:00 AM 54 °F 43 °F 57% 30.13 in 15 mi ESE 2.3 mph - -  
5:00 AM 53.6 °F 42.8 °F 67% 30.12 in 15.0 mi SE 2.3 mph - N/A   Partly Cloudy
6:00 AM 53.6 °F 42.8 °F 67% 30.13 in 15.0 mi SSE 8.1 mph - N/A   Partly Cloudy
7:00 AM 59.0 °F 42.8 °F 55% 30.12 in 15.0 mi ESE 3.5 mph - N/A   Partly Cloudy
8:00 AM 61 °F 44 °F 43% 30.12 in 15 mi SSE 10.4 mph - -   Scattered Clouds
8:00 AM 60.8 °F 44.6 °F 55% 30.12 in 15.0 mi SSE 11.5 mph - N/A   Partly Cloudy
9:00 AM 64.4 °F 46.4 °F 52% 30.12 in 15.0 mi SSE 10.4 mph 17.3 mph N/A   Mostly Cloudy
10:00 AM 66.2 °F 46.4 °F 49% 30.11 in 15.0 mi SSE 12.7 mph 21.9 mph N/A   Mostly Cloudy
11:00 AM 66 °F 47 °F 40% 30.09 in 15 mi SSE 12.7 mph - -  
11:00 AM 66.2 °F 48.2 °F 52% 30.09 in 15.0 mi SE 13.8 mph 23.0 mph N/A   Mostly Cloudy
12:00 PM 68.0 °F 48.2 °F 49% 30.09 in 15.0 mi SSE 15.0 mph 21.9 mph N/A   Mostly Cloudy
1:00 PM 68.0 °F 50.0 °F 52% 30.06 in 15.0 mi SSE 13.8 mph 26.5 mph N/A   Mostly Cloudy
2:00 PM 70 °F 47 °F 33% 30.05 in 15 mi SSE 15.0 mph - -   Scattered Clouds
2:00 PM 69.8 °F 48.2 °F 46% 30.04 in 15.0 mi SSE 15.0 mph 25.3 mph N/A   Mostly Cloudy
3:00 PM 69.8 °F 44.6 °F 40% 30.01 in 15.0 mi SSE 13.8 mph 24.2 mph N/A   Scattered Clouds
4:00 PM 69.8 °F 42.8 °F 38% 30.00 in 15.0 mi SE 11.5 mph 23.0 mph N/A   Partly Cloudy
5:00 PM 70 °F 42 °F 26% 29.98 in 15 mi ESE 9.2 mph - -  
5:00 PM 69.8 °F 42.8 °F 38% 29.97 in 15.0 mi ESE 9.2 mph - N/A   Mostly Cloudy
6:00 PM 69.8 °F 46.4 °F 43% 29.96 in 15.0 mi SE 8.1 mph 18.4 mph N/A   Mostly Cloudy
8:00 PM 64.4 °F 41.0 °F 42% 29.94 in 15.0 mi East 12.7 mph 19.6 mph N/A   Mostly Cloudy
9:00 PM 62.6 °F 42.8 °F 48% 29.92 in 15.0 mi East 8.1 mph - N/A   Mostly Cloudy
10:00 PM 62.6 °F 42.8 °F 48% 29.91 in 15.0 mi East 9.2 mph 18.4 mph N/A   Mostly Cloudy
11:00 PM 62 °F 44 °F 40% 29.88 in 15 mi East 6.9 mph - -  
11:00 PM 62.6 °F 44.6 °F 52% 29.88 in 15.0 mi East 8.1 mph - N/A   Mostly Cloudy